User: anonymous   Login
Location: Caltech
(34.1382°N, 118.1253°W)
Time: 20:47:31
(UTC-07:00)
Language:

UOSAT-12 - Orbit

View from above orbital plane
View from above orbital plane
View from above satellite
View from above satellite

Ground track
Ground track

The orbit data is extracted from the following two-line orbital elements,

1 25693U 99021A   17229.71456795 -.00000059 +00000-0 +11513-4 0  9991
2 25693 064.5560 296.0538 0039698 303.3228 056.4078 14.80746176989271
Epoch (UTC): 17 August 2017 17:08:58
Eccentricity: 0.0039698
inclination: 64.5560°
perigee height: 599 km
apogee height: 655 km
right ascension of ascending node: 296.0538°
argument of perigee: 303.3228°
revolutions per day: 14.80746176
mean anomaly at epoch: 56.4078°
orbit number at epoch: 98927

The dashed part of the orbit path shows where the satellite is in the earth's shadow,  

DLR